QPF
0.01 0.01 0.01 0.02 0.03 0.04 0.03 0.03 0.03 0.04 0.04 0.05 0.05 0.04 0.03 0.03 0.03 0.03 0.02 0.02 0.01 0.02 0.02 0.01 0.01 0.01 0.01 0.01 0.01 0.02 0.02 0.03 0.02 0.01 0.01 0.01 0.01 0.01 0.01 0.01 0.00 0.00 0.00
0.01 0.01 0.01 0.01 0.02 0.03 0.03 0.03 0.03 0.03 0.03 0.03 0.03 0.03 0.03 0.03 0.03 0.03 0.03 0.02 0.02 0.02 0.02 0.01 0.01 0.01 0.02 0.01 0.01 0.01 0.01 0.02 0.03 0.02 0.02 0.01 0.02 0.01 0.01 0.01 0.00 0.00 0.01
0.01 0.01 0.01 0.01 0.01 0.01 0.01 0.02 0.02 0.02 0.01 0.01 0.02 0.02 0.02 0.03 0.03 0.02 0.02 0.02 0.02 0.01 0.01 0.01 0.01 0.01 0.01 0.01 0.01 0.01 0.01 0.02 0.02 0.02 0.01 0.01 0.01 0.01 0.00 0.00 0.00 0.00 0.01
0.01 0.01 0.00 0.01 0.01 0.01 0.01 0.01 0.01 0.01 0.01 0.01 0.01 0.01 0.01 0.02 0.02 0.02 0.02 0.02 0.02 0.01 0.01 0.01 0.01 0.01 0.01 0.01 0.01 0.01 0.01 0.01 0.01 0.01 0.01 0.01 0.01 0.01 0.01 0.01 0.01 0.00 0.00
0.01 0.01 0.00 0.01 0.01 0.01 0.01 0.02 0.02 0.01 0.01 0.01 0.01 0.01 0.01 0.02 0.02 0.03 0.02 0.02 0.02 0.01 0.01 0.01 0.01 0.01 0.01 0.01 0.01 0.01 0.01 0.01 0.01 0.01 0.01 0.01 0.01 0.01 0.01 0.02 0.01 0.00 0.00
0.01 0.01 0.01 0.01 0.01 0.01 0.01 0.02 0.02 0.02 0.02 0.01 0.01 0.01 0.01 0.01 0.02 0.02 0.02 0.02 0.02 0.01 0.01 0.01 0.01 0.01 0.02 0.01 0.01 0.01 0.01 0.01 0.01 0.01 0.01 0.01 0.01 0.01 0.01 0.02 0.02 0.01 0.01
0.01 0.01 0.01 0.00 0.00 0.01 0.01 0.01 0.01 0.02 0.02 0.02 0.03 0.02 0.02 0.02 0.02 0.02 0.02 0.02 0.02 0.01 0.01 0.01 0.01 0.01 0.01 0.01 0.01 0.00 0.00 0.01 0.01 0.01 0.01 0.01 0.01 0.01 0.02 0.02 0.02 0.01 0.00
0.00 0.00 0.01 0.01 0.01 0.01 0.01 0.01 0.02 0.02 0.03 0.03 0.03 0.03 0.03 0.03 0.04 0.04 0.04 0.04 0.03 0.02 0.01 0.01 0.01 0.01 0.02 0.02 0.01 0.01 0.01 0.01 0.01 0.01 0.01 0.01 0.01 0.02 0.02 0.02 0.02 0.01 0.00
0.00 0.00 0.00 0.00 0.01 0.01 0.01 0.01 0.02 0.03 0.04 0.05 0.04 0.03 0.03 0.04 0.05 0.05 0.04 0.04 0.04 0.04 0.03 0.02 0.02 0.02 0.02 0.02 0.01 0.01 0.01 0.01 0.01 0.01 0.01 0.01 0.01 0.02 0.02 0.02 0.01 0.01 0.01
0.00 0.00 0.00 0.01 0.01 0.01 0.02 0.02 0.03 0.03 0.03 0.04 0.04 0.03 0.03 0.03 0.04 0.03 0.03 0.03 0.03 0.03 0.03 0.03 0.03 0.03 0.03 0.02 0.02 0.01 0.01 0.01 0.00 0.00 0.00 0.01 0.01 0.01 0.02 0.02 0.02 0.02 0.01
0.00 0.00 0.00 0.01 0.02 0.03 0.03 0.03 0.03 0.04 0.03 0.03 0.02 0.03 0.04 0.03 0.03 0.02 0.02 0.01 0.02 0.02 0.02 0.02 0.01 0.01 0.01 0.01 0.01 0.01 0.01 0.01 0.01 0.01 0.01 0.01 0.01 0.01 0.01 0.01 0.02 0.02 0.02
0.00 0.00 0.00 0.01 0.02 0.04 0.06 0.06 0.05 0.04 0.04 0.03 0.02 0.02 0.04 0.04 0.04 0.02 0.02 0.01 0.01 0.01 0.01 0.01 0.01 0.01 0.01 0.01 0.01 0.01 0.01 0.01 0.01 0.01 0.01 0.01 0.01 0.01 0.02 0.02 0.01 0.01 0.02
0.01 0.01 0.00 0.00 0.00 0.01 0.03 0.04 0.03 0.02 0.02 0.02 0.01 0.01 0.02 0.04 0.05 0.05 0.02 0.01 0.01 0.01 0.01 0.01 0.01 0.01 0.01 0.01 0.01 0.02 0.02 0.01 0.01 0.01 0.01 0.01 0.01 0.01 0.01 0.02 0.01 0.01 0.01
0.01 0.01 0.01 0.01 0.00 0.00 0.01 0.01 0.01 0.01 0.01 0.02 0.02 0.02 0.02 0.02 0.04 0.06 0.06 0.03 0.02 0.01 0.01 0.01 0.01 0.01 0.01 0.01 0.01 0.01 0.01 0.01 0.01 0.01 0.01 0.01 0.01 0.01 0.01 0.01 0.01 0.01 0.01
0.00 0.01 0.01 0.01 0.01 0.01 0.01 0.01 0.01 0.01 0.01 0.02 0.03 0.03 0.02 0.02 0.03 0.05 0.06 0.06 0.04 0.02 0.02 0.02 0.02 0.02 0.03 0.02 0.02 0.01 0.01 0.01 0.01 0.01 0.01 0.01 0.01 0.01 0.01 0.02 0.02 0.02 0.02
0.01 0.00 0.00 0.00 0.01 0.01 0.02 0.01 0.01 0.01 0.01 0.01 0.01 0.02 0.02 0.02 0.03 0.04 0.04 0.05 0.05 0.04 0.02 0.01 0.01 0.01 0.01 0.01 0.01 0.01 0.01 0.01 0.01 0.01 0.01 0.01 0.01 0.01 0.01 0.02 0.02 0.02 0.02
0.00 0.00 0.00 0.00 0.00 0.00 0.01 0.01 0.00 0.01 0.01 0.00 0.01 0.01 0.01 0.02 0.03 0.03 0.03 0.04 0.04 0.04 0.03 0.01 0.01 0.01 0.01 0.01 0.01 0.01 0.01 0.00 0.01 0.01 0.01 0.01 0.01 0.01 0.01 0.01 0.02 0.02 0.02
0.00 0.01 0.01 0.01 0.01 0.00 0.01 0.01 0.00 0.00 0.01 0.00 0.01 0.01 0.01 0.02 0.02 0.03 0.03 0.03 0.02 0.02 0.03 0.02 0.02 0.01 0.01 0.01 0.01 0.01 0.01 0.01 0.01 0.01 0.01 0.01 0.01 0.01 0.02 0.02 0.02 0.02 0.02
0.00 0.00 0.01 0.01 0.02 0.01 0.01 0.01 0.01 0.00 0.00 0.01 0.01 0.01 0.01 0.02 0.02 0.03 0.03 0.03 0.02 0.02 0.02 0.02 0.01 0.01 0.01 0.01 0.01 0.01 0.01 0.02 0.01 0.01 0.01 0.01 0.01 0.01 0.02 0.02 0.02 0.02 0.02
0.01 0.01 0.02 0.02 0.02 0.02 0.01 0.01 0.00 0.00 0.00 0.00 0.01 0.01 0.01 0.02 0.02 0.02 0.03 0.03 0.03 0.03 0.03 0.02 0.02 0.02 0.01 0.01 0.01 0.01 0.01 0.01 0.01 0.01 0.01 0.01 0.01 0.02 0.02 0.02 0.02 0.02 0.02
0.02 0.02 0.02 0.02 0.02 0.02 0.02 0.01 0.01 0.01 0.00 0.00 0.01 0.01 0.01 0.01 0.02 0.02 0.02 0.02 0.03 0.03 0.03 0.03 0.03 0.02 0.01 0.01 0.01 0.01 0.01 0.01 0.01 0.01 0.01 0.01 0.02 0.02 0.02 0.02 0.02 0.02 0.02
0.02 0.02 0.02 0.02 0.02 0.01 0.01 0.01 0.01 0.01 0.01 0.01 0.01 0.01 0.01 0.01 0.01 0.02 0.02 0.02 0.02 0.03 0.03 0.03 0.03 0.02 0.01 0.01 0.01 0.01 0.01 0.01 0.01 0.01 0.01 0.02 0.01 0.02 0.02 0.02 0.02 0.02 0.02
0.02 0.02 0.02 0.02 0.01 0.01 0.01 0.01 0.01 0.01 0.01 0.00 0.00 0.00 0.01 0.01 0.01 0.01 0.01 0.01 0.02 0.02 0.03 0.03 0.03 0.03 0.02 0.01 0.01 0.01 0.02 0.01 0.02 0.02 0.03 0.03 0.02 0.02 0.02 0.02 0.02 0.03 0.03
0.02 0.01 0.01 0.01 0.01 0.01 0.01 0.01 0.01 0.01 0.01 0.01 0.01 0.01 0.01 0.01 0.02 0.02 0.02 0.01 0.01 0.02 0.02 0.03 0.03 0.03 0.02 0.02 0.02 0.02 0.02 0.02 0.03 0.04 0.03 0.03 0.03 0.03 0.03 0.03 0.03 0.03 0.04
0.03 0.02 0.02 0.02 0.01 0.02 0.02 0.01 0.01 0.01 0.01 0.01 0.01 0.01 0.02 0.02 0.03 0.03 0.03 0.03 0.02 0.02 0.02 0.02 0.02 0.03 0.03 0.03 0.02 0.02 0.03 0.03 0.03 0.04 0.04 0.05 0.04 0.04 0.04 0.04 0.04 0.04 0.04
0.04 0.03 0.03 0.03 0.03 0.02 0.02 0.03 0.03 0.02 0.01 0.01 0.02 0.02 0.03 0.03 0.03 0.04 0.04 0.04 0.03 0.02 0.02 0.02 0.02 0.02 0.02 0.03 0.03 0.02 0.03 0.03 0.03 0.04 0.04 0.04 0.04 0.04 0.04 0.04 0.04 0.04 0.04
MSLP
1017.01 1017.33 1017.65 1017.94 1018.19 1018.39 1018.54 1018.66 1018.78 1018.90 1019.06 1019.26 1019.49 1019.75 1020.02 1020.27 1020.50 1020.69 1020.83 1020.94 1021.02 1021.08 1021.14 1021.21 1021.29 1021.38 1021.47 1021.54 1021.60 1021.63 1021.62 1021.59 1021.53 1021.46 1021.39 1021.32 1021.27 1021.22 1021.19 1021.16 1021.13 1021.10 1021.06
1017.08 1017.43 1017.78 1018.08 1018.32 1018.49 1018.61 1018.69 1018.76 1018.84 1018.95 1019.10 1019.31 1019.56 1019.83 1020.10 1020.36 1020.58 1020.77 1020.92 1021.03 1021.13 1021.21 1021.29 1021.37 1021.45 1021.52 1021.58 1021.62 1021.63 1021.61 1021.57 1021.51 1021.43 1021.34 1021.26 1021.18 1021.10 1021.03 1020.96 1020.88 1020.80 1020.73
1017.08 1017.47 1017.83 1018.14 1018.38 1018.54 1018.64 1018.70 1018.74 1018.79 1018.87 1019.01 1019.20 1019.44 1019.70 1019.97 1020.24 1020.48 1020.68 1020.85 1020.99 1021.10 1021.19 1021.28 1021.36 1021.44 1021.51 1021.56 1021.60 1021.61 1021.60 1021.56 1021.50 1021.43 1021.34 1021.25 1021.16 1021.06 1020.95 1020.84 1020.72 1020.60 1020.47
1016.95 1017.37 1017.75 1018.08 1018.32 1018.49 1018.60 1018.66 1018.70 1018.76 1018.85 1018.98 1019.17 1019.40 1019.65 1019.91 1020.16 1020.39 1020.59 1020.75 1020.88 1020.99 1021.09 1021.18 1021.26 1021.35 1021.43 1021.49 1021.54 1021.56 1021.57 1021.54 1021.50 1021.44 1021.36 1021.28 1021.18 1021.07 1020.95 1020.81 1020.65 1020.48 1020.31
1016.66 1017.10 1017.50 1017.84 1018.11 1018.31 1018.45 1018.55 1018.64 1018.73 1018.85 1019.00 1019.20 1019.42 1019.66 1019.90 1020.12 1020.32 1020.48 1020.62 1020.73 1020.83 1020.92 1021.01 1021.10 1021.19 1021.28 1021.36 1021.43 1021.47 1021.48 1021.48 1021.45 1021.41 1021.35 1021.28 1021.20 1021.09 1020.97 1020.82 1020.64 1020.45 1020.24
1016.19 1016.65 1017.07 1017.44 1017.75 1017.99 1018.19 1018.36 1018.51 1018.66 1018.83 1019.03 1019.24 1019.46 1019.68 1019.89 1020.08 1020.23 1020.35 1020.45 1020.53 1020.61 1020.69 1020.78 1020.88 1020.98 1021.09 1021.18 1021.26 1021.31 1021.35 1021.35 1021.34 1021.32 1021.28 1021.22 1021.16 1021.07 1020.96 1020.83 1020.65 1020.45 1020.23
1015.58 1016.05 1016.49 1016.89 1017.24 1017.55 1017.81 1018.06 1018.29 1018.52 1018.75 1018.99 1019.22 1019.45 1019.65 1019.83 1019.97 1020.08 1020.15 1020.22 1020.28 1020.34 1020.42 1020.51 1020.62 1020.74 1020.86 1020.96 1021.05 1021.11 1021.14 1021.15 1021.14 1021.12 1021.10 1021.07 1021.03 1020.97 1020.90 1020.79 1020.65 1020.47 1020.26
1014.89 1015.37 1015.82 1016.25 1016.64 1017.00 1017.34 1017.66 1017.96 1018.26 1018.55 1018.83 1019.08 1019.31 1019.49 1019.64 1019.75 1019.82 1019.87 1019.91 1019.96 1020.02 1020.11 1020.22 1020.34 1020.48 1020.60 1020.72 1020.80 1020.85 1020.87 1020.87 1020.85 1020.84 1020.82 1020.80 1020.80 1020.78 1020.75 1020.70 1020.60 1020.48 1020.31
1014.18 1014.66 1015.12 1015.57 1016.00 1016.40 1016.79 1017.16 1017.53 1017.88 1018.20 1018.51 1018.77 1019.00 1019.17 1019.30 1019.38 1019.44 1019.48 1019.52 1019.58 1019.66 1019.77 1019.91 1020.05 1020.20 1020.34 1020.44 1020.52 1020.55 1020.55 1020.53 1020.50 1020.48 1020.47 1020.47 1020.50 1020.53 1020.56 1020.56 1020.54 1020.48 1020.37
1013.49 1013.97 1014.44 1014.89 1015.34 1015.77 1016.19 1016.60 1016.99 1017.36 1017.71 1018.02 1018.29 1018.50 1018.67 1018.79 1018.87 1018.93 1018.99 1019.06 1019.14 1019.26 1019.41 1019.58 1019.75 1019.92 1020.06 1020.16 1020.22 1020.23 1020.21 1020.17 1020.13 1020.10 1020.09 1020.12 1020.18 1020.26 1020.35 1020.43 1020.48 1020.50 1020.47
1012.84 1013.31 1013.78 1014.24 1014.69 1015.13 1015.56 1015.97 1016.37 1016.75 1017.09 1017.40 1017.65 1017.87 1018.03 1018.16 1018.25 1018.34 1018.43 1018.54 1018.67 1018.84 1019.02 1019.23 1019.43 1019.61 1019.75 1019.85 1019.90 1019.90 1019.87 1019.82 1019.77 1019.75 1019.76 1019.81 1019.91 1020.04 1020.19 1020.33 1020.46 1020.55 1020.59
1012.22 1012.69 1013.15 1013.60 1014.05 1014.48 1014.90 1015.31 1015.69 1016.05 1016.39 1016.68 1016.93 1017.14 1017.31 1017.45 1017.58 1017.70 1017.84 1018.00 1018.18 1018.39 1018.62 1018.85 1019.07 1019.26 1019.41 1019.51 1019.56 1019.56 1019.53 1019.49 1019.46 1019.45 1019.49 1019.59 1019.72 1019.90 1020.10 1020.30 1020.48 1020.63 1020.74
1011.61 1012.07 1012.52 1012.96 1013.40 1013.82 1014.22 1014.61 1014.98 1015.32 1015.64 1015.92 1016.16 1016.38 1016.57 1016.74 1016.90 1017.07 1017.25 1017.46 1017.68 1017.92 1018.18 1018.43 1018.66 1018.86 1019.01 1019.12 1019.18 1019.20 1019.19 1019.19 1019.20 1019.24 1019.32 1019.46 1019.64 1019.86 1020.10 1020.34 1020.56 1020.74 1020.88
1011.00 1011.43 1011.86 1012.29 1012.71 1013.12 1013.51 1013.88 1014.24 1014.57 1014.87 1015.15 1015.40 1015.64 1015.85 1016.05 1016.26 1016.47 1016.69 1016.92 1017.17 1017.43 1017.69 1017.94 1018.17 1018.37 1018.53 1018.65 1018.74 1018.80 1018.85 1018.90 1018.98 1019.09 1019.24 1019.43 1019.66 1019.91 1020.17 1020.42 1020.65 1020.85 1021.00
1010.37 1010.77 1011.18 1011.59 1011.99 1012.38 1012.76 1013.12 1013.47 1013.80 1014.10 1014.39 1014.66 1014.92 1015.16 1015.40 1015.64 1015.88 1016.13 1016.38 1016.63 1016.88 1017.13 1017.36 1017.58 1017.77 1017.94 1018.08 1018.21 1018.33 1018.46 1018.61 1018.78 1018.97 1019.20 1019.45 1019.72 1020.00 1020.27 1020.52 1020.73 1020.92 1021.06
1009.76 1010.11 1010.48 1010.85 1011.23 1011.60 1011.96 1012.32 1012.66 1012.99 1013.31 1013.62 1013.91 1014.20 1014.47 1014.74 1015.01 1015.27 1015.52 1015.77 1016.01 1016.24 1016.45 1016.65 1016.85 1017.03 1017.21 1017.39 1017.58 1017.78 1018.01 1018.26 1018.54 1018.84 1019.15 1019.47 1019.78 1020.08 1020.35 1020.58 1020.77 1020.92 1021.04
1009.21 1009.49 1009.79 1010.11 1010.45 1010.79 1011.13 1011.47 1011.81 1012.14 1012.46 1012.79 1013.10 1013.42 1013.72 1014.01 1014.30 1014.56 1014.81 1015.04 1015.25 1015.44 1015.62 1015.79 1015.96 1016.14 1016.34 1016.56 1016.82 1017.12 1017.46 1017.83 1018.23 1018.64 1019.04 1019.43 1019.79 1020.10 1020.36 1020.57 1020.73 1020.85 1020.94
1008.78 1008.95 1009.17 1009.42 1009.69 1009.97 1010.27 1010.58 1010.89 1011.21 1011.53 1011.86 1012.19 1012.52 1012.84 1013.15 1013.44 1013.70 1013.94 1014.15 1014.32 1014.48 1014.63 1014.77 1014.92 1015.11 1015.33 1015.62 1015.96 1016.35 1016.80 1017.30 1017.81 1018.33 1018.83 1019.29 1019.69 1020.03 1020.29 1020.48 1020.62 1020.72 1020.78
1008.49 1008.55 1008.66 1008.81 1008.99 1009.19 1009.42 1009.67 1009.93 1010.21 1010.51 1010.82 1011.15 1011.47 1011.79 1012.10 1012.38 1012.64 1012.87 1013.05 1013.21 1013.34 1013.47 1013.60 1013.76 1013.96 1014.23 1014.57 1014.99 1015.49 1016.05 1016.66 1017.29 1017.91 1018.50 1019.03 1019.48 1019.84 1020.12 1020.31 1020.44 1020.53 1020.59
1008.36 1008.31 1008.29 1008.32 1008.38 1008.48 1008.61 1008.77 1008.96 1009.17 1009.42 1009.68 1009.97 1010.28 1010.58 1010.87 1011.15 1011.39 1011.60 1011.78 1011.93 1012.05 1012.18 1012.32 1012.50 1012.74 1013.06 1013.47 1013.98 1014.57 1015.23 1015.94 1016.67 1017.38 1018.05 1018.64 1019.14 1019.54 1019.84 1020.06 1020.20 1020.30 1020.37
1008.40 1008.22 1008.07 1007.97 1007.91 1007.88 1007.89 1007.93 1008.02 1008.14 1008.30 1008.50 1008.73 1008.99 1009.25 1009.52 1009.77 1010.01 1010.21 1010.39 1010.54 1010.68 1010.82 1010.99 1011.22 1011.51 1011.89 1012.37 1012.96 1013.63 1014.38 1015.18 1015.98 1016.77 1017.51 1018.16 1018.71 1019.15 1019.49 1019.74 1019.92 1020.05 1020.16
1008.54 1008.25 1008.00 1007.77 1007.58 1007.42 1007.30 1007.22 1007.19 1007.20 1007.25 1007.36 1007.51 1007.69 1007.90 1008.13 1008.35 1008.57 1008.77 1008.96 1009.12 1009.29 1009.48 1009.70 1009.98 1010.33 1010.78 1011.34 1011.99 1012.74 1013.56 1014.41 1015.28 1016.13 1016.91 1017.61 1018.21 1018.70 1019.09 1019.38 1019.61 1019.78 1019.93
1008.75 1008.38 1008.03 1007.70 1007.40 1007.13 1006.89 1006.68 1006.53 1006.42 1006.36 1006.36 1006.41 1006.51 1006.65 1006.81 1007.00 1007.19 1007.38 1007.58 1007.77 1007.98 1008.22 1008.50 1008.85 1009.27 1009.80 1010.42 1011.14 1011.94 1012.81 1013.71 1014.62 1015.50 1016.32 1017.05 1017.68 1018.22 1018.65 1018.99 1019.26 1019.49 1019.68
1008.96 1008.55 1008.14 1007.75 1007.36 1007.00 1006.66 1006.35 1006.08 1005.86 1005.68 1005.57 1005.51 1005.51 1005.56 1005.66 1005.79 1005.94 1006.12 1006.32 1006.54 1006.80 1007.09 1007.44 1007.86 1008.36 1008.96 1009.64 1010.42 1011.27 1012.18 1013.11 1014.04 1014.93 1015.77 1016.52 1017.17 1017.73 1018.20 1018.58 1018.89 1019.16 1019.40
1009.12 1008.70 1008.28 1007.85 1007.43 1007.01 1006.60 1006.21 1005.85 1005.52 1005.24 1005.01 1004.84 1004.73 1004.69 1004.70 1004.76 1004.87 1005.02 1005.22 1005.46 1005.75 1006.11 1006.52 1007.02 1007.60 1008.27 1009.02 1009.86 1010.75 1011.68 1012.63 1013.56 1014.46 1015.29 1016.04 1016.71 1017.27 1017.76 1018.16 1018.50 1018.80 1019.07
1009.20 1008.81 1008.40 1007.98 1007.55 1007.11 1006.66 1006.22 1005.78 1005.37 1004.99 1004.66 1004.38 1004.16 1004.01 1003.92 1003.90 1003.95 1004.07 1004.25 1004.51 1004.84 1005.24 1005.73 1006.31 1006.97 1007.71 1008.53 1009.42 1010.36 1011.31 1012.27 1013.20 1014.09 1014.91 1015.65 1016.30 1016.86 1017.34 1017.75 1018.11 1018.43 1018.72
Thickness
5684 5682 5680 5678 5676 5675 5674 5673 5671 5670 5669 5668 5667 5666 5665 5664 5662 5660 5659 5657 5656 5656 5654 5653 5651 5650 5648 5647 5646 5645 5644 5643 5639 5636 5634 5632 5630 5629 5627 5626 5626 5626 5624
5680 5679 5677 5675 5672 5670 5669 5669 5668 5667 5666 5665 5664 5663 5663 5661 5660 5658 5656 5654 5653 5652 5651 5649 5647 5645 5644 5643 5641 5640 5639 5638 5636 5632 5630 5628 5626 5625 5624 5622 5622 5622 5621
5676 5674 5672 5671 5669 5667 5665 5664 5664 5663 5663 5662 5661 5660 5659 5658 5656 5654 5653 5652 5650 5649 5648 5646 5644 5642 5640 5638 5636 5636 5635 5633 5631 5629 5627 5624 5622 5620 5619 5618 5618 5617 5617
5671 5669 5667 5666 5664 5663 5661 5660 5660 5660 5660 5660 5659 5657 5656 5655 5654 5652 5650 5649 5647 5646 5644 5642 5641 5639 5637 5636 5633 5632 5630 5628 5627 5625 5623 5620 5617 5615 5614 5614 5613 5613 5613
5666 5664 5662 5661 5660 5658 5657 5657 5656 5656 5656 5656 5655 5654 5653 5651 5651 5649 5647 5645 5644 5642 5640 5638 5636 5634 5631 5630 5629 5628 5626 5624 5622 5621 5619 5617 5614 5611 5611 5611 5610 5609 5609
5663 5660 5658 5656 5655 5653 5653 5653 5652 5651 5651 5651 5650 5650 5648 5647 5644 5641 5641 5640 5639 5637 5635 5633 5631 5627 5624 5621 5620 5619 5619 5620 5620 5617 5616 5614 5613 5611 5608 5607 5606 5605 5605
5658 5655 5653 5651 5649 5648 5648 5648 5646 5646 5646 5645 5645 5644 5643 5641 5638 5636 5634 5635 5634 5633 5631 5629 5626 5624 5620 5620 5616 5613 5612 5611 5611 5613 5613 5612 5610 5608 5605 5603 5602 5601 5600
5653 5651 5648 5646 5645 5643 5643 5643 5642 5642 5641 5640 5640 5639 5638 5636 5632 5631 5628 5629 5630 5628 5626 5624 5622 5620 5617 5615 5614 5613 5612 5609 5606 5605 5607 5607 5605 5602 5600 5599 5598 5596 5596
5647 5646 5644 5642 5640 5638 5637 5637 5637 5637 5636 5635 5635 5634 5632 5631 5627 5625 5623 5624 5624 5623 5621 5619 5617 5615 5611 5607 5608 5607 5606 5605 5601 5599 5598 5597 5595 5593 5592 5592 5591 5590 5590
5643 5641 5640 5638 5636 5634 5633 5632 5632 5632 5631 5630 5630 5629 5628 5628 5623 5620 5617 5620 5619 5618 5616 5613 5609 5608 5605 5602 5602 5602 5601 5600 5598 5595 5592 5591 5589 5587 5585 5585 5586 5585 5585
5638 5636 5634 5633 5631 5630 5628 5627 5626 5626 5625 5624 5624 5623 5623 5622 5618 5615 5612 5614 5613 5612 5611 5609 5606 5601 5598 5596 5595 5597 5596 5594 5592 5591 5589 5587 5585 5584 5582 5580 5580 5579 5579
5630 5628 5627 5626 5625 5624 5622 5620 5620 5619 5618 5618 5618 5617 5616 5615 5612 5609 5607 5605 5605 5606 5605 5604 5601 5596 5593 5591 5590 5589 5586 5584 5585 5584 5583 5581 5580 5579 5577 5575 5573 5572 5571
5621 5620 5619 5619 5618 5617 5616 5614 5613 5612 5612 5612 5611 5610 5610 5609 5607 5603 5600 5599 5597 5598 5599 5596 5593 5589 5587 5585 5584 5582 5580 5579 5579 5578 5577 5576 5575 5573 5570 5568 5566 5564 5563
5613 5613 5612 5612 5611 5610 5609 5608 5607 5606 5606 5606 5605 5605 5604 5602 5600 5598 5596 5593 5590 5589 5589 5587 5584 5582 5580 5580 5579 5577 5576 5575 5574 5573 5572 5570 5568 5565 5562 5561 5559 5558 5557
5606 5605 5605 5604 5603 5602 5602 5602 5601 5601 5601 5599 5599 5599 5597 5595 5594 5591 5589 5588 5587 5584 5582 5581 5579 5578 5576 5576 5575 5574 5572 5570 5568 5567 5566 5564 5562 5559 5557 5555 5553 5552 5552
5598 5598 5597 5596 5594 5594 5594 5593 5591 5591 5590 5589 5589 5589 5589 5587 5585 5582 5580 5578 5577 5575 5573 5575 5575 5574 5574 5573 5571 5569 5567 5565 5564 5562 5561 5559 5557 5555 5552 5550 5547 5546 5547
5590 5590 5588 5587 5587 5586 5586 5586 5585 5583 5580 5579 5579 5578 5578 5577 5575 5573 5571 5569 5567 5565 5567 5569 5570 5569 5569 5568 5566 5565 5563 5561 5559 5557 5555 5554 5551 5549 5547 5545 5543 5541 5541
5581 5580 5579 5579 5579 5579 5578 5578 5578 5578 5577 5576 5573 5570 5569 5568 5566 5564 5561 5559 5559 5558 5561 5563 5564 5563 5563 5562 5561 5559 5558 5556 5554 5552 5550 5548 5546 5544 5542 5541 5539 5537 5536
5572 5572 5571 5571 5570 5570 5570 5569 5569 5570 5570 5569 5568 5565 5561 5559 5557 5555 5553 5554 5555 5555 5556 5556 5557 5557 5556 5555 5555 5553 5552 5551 5549 5547 5546 5543 5541 5539 5537 5536 5535 5531 5529
5563 5561 5560 5561 5561 5561 5561 5560 5560 5560 5560 5560 5559 5558 5555 5552 5552 5550 5548 5549 5549 5550 5550 5550 5551 5550 5550 5549 5548 5546 5545 5544 5543 5541 5540 5538 5536 5534 5533 5531 5529 5527 5525
5553 5553 5550 5551 5552 5552 5552 5551 5551 5550 5550 5550 5550 5549 5546 5546 5546 5546 5545 5544 5544 5544 5544 5544 5544 5544 5543 5542 5542 5541 5540 5539 5538 5537 5535 5533 5531 5528 5527 5526 5524 5522 5520
5542 5543 5543 5543 5543 5543 5542 5542 5541 5541 5541 5540 5540 5538 5535 5536 5538 5539 5539 5538 5538 5537 5537 5537 5537 5538 5537 5537 5536 5536 5535 5535 5533 5531 5529 5527 5525 5523 5521 5520 5518 5516 5514
5532 5532 5532 5533 5533 5532 5532 5532 5531 5531 5531 5530 5530 5529 5528 5529 5530 5531 5531 5531 5531 5531 5530 5530 5530 5531 5531 5531 5530 5529 5529 5529 5528 5526 5523 5521 5519 5517 5516 5514 5513 5511 5509
5522 5523 5523 5523 5523 5523 5523 5523 5523 5522 5521 5521 5520 5520 5520 5521 5522 5522 5523 5523 5523 5523 5523 5523 5523 5524 5524 5524 5523 5523 5522 5521 5519 5518 5516 5514 5512 5511 5510 5508 5507 5506 5503
5514 5514 5514 5514 5514 5513 5513 5513 5513 5512 5512 5511 5512 5512 5512 5513 5513 5514 5514 5514 5514 5514 5515 5515 5515 5516 5517 5517 5516 5516 5515 5513 5511 5509 5508 5506 5505 5504 5503 5502 5500 5499 5497
5505 5505 5505 5504 5504 5503 5503 5503 5503 5503 5503 5503 5503 5504 5504 5504 5505 5505 5505 5505 5505 5505 5505 5505 5506 5507 5508 5508 5509 5508 5506 5505 5503 5502 5500 5499 5499 5498 5496 5495 5494 5492 5490